Location: Владивосток
(43.1151°N, 131.8856°E)
Time: 17:35:21
(UTC+10:00)

Tiangong - Visible Passes

Search period start: 28 May 2023 00:00
Search period end: 07 June 2023 00:00
Orbit: 377 x 392 km, 41.5° (Epoch: 27 May)

Date Brightness Start Highest point End Pass type
(mag) Time Alt. Az. Time Alt. Az. Time Alt. Az.
01 Jun 0.1 04:43:29 10° SSW 04:45:32 16° SSE 04:47:36 10° ESE visible
03 Jun -0.6 04:21:01 17° SSW 04:22:36 24° SSE 04:25:17 10° E visible
04 Jun 0.2 03:23:46 15° SE 03:23:46 15° SE 03:25:01 10° ESE visible
04 Jun -1.7 04:56:16 10° WSW 04:59:21 48° SSE 05:02:27 10° E visible
05 Jun -1.3 03:58:38 28° SSW 03:59:33 35° SSE 04:02:31 10° E visible
06 Jun 0.1 03:01:16 17° ESE 03:01:16 17° ESE 03:02:25 10° E visible
06 Jun -2.0 04:33:26 12° WSW 04:36:17 60° S 04:39:27 10° E visible
